[[{"header":{"parameterUnit":"m.s-1","parameterCategory":1,"la1":30.2991,"la2":30.254,"lo1":-89.0895,"lo2":-89.0444,"dy":0.0017,"dx":0.0017,"nx":28,"ny":28,"refTime":"2024-10-15T21:00:00:Z","depth":0,"parameterNumber":2,"parameterNumberName":"U-component_of_WINDS"},"data":[0,0,0,0,0,0,0,0,0,0,0,0,0,0,0,0,0,0,0,0,0,0,0,0,0,0,0,0,0,0,0,0,0,0,0,0,0,0,0,0,0,0,0,0,0,0,0,0,0,0,0,0,0,0,0,0,0,0,-1.0612,-1.0612,0,-1.0653,-1.0654,-1.0654,-1.0687,-1.0687,-1.0687,-1.0688,-1.0728,-1.0729,-1.073,0,0,0,0,0,0,0,0,0,0,0,0,0,-1.0556,-1.0557,-1.0612,-1.0612,-1.0613,-1.0653,-1.0654,-1.0654,-1.0687,-1.0687,-1.0687,-1.0688,-1.0728,-1.0729,-1.073,0,0,0,0,0,0,0,0,0,0,0,0,0,-1.0587,-1.0557,-1.0611,-1.0634,-1.0636,-1.0653,-1.0654,-1.0654,-1.0687,-1.0687,-1.0688,-1.0688,-1.0728,-1.0729,-1.073,-1.0727,0,0,-1.0733,-1.0734,0,0,0,0,0,0,0,0,-1.0585,-1.0589,-1.063,-1.0632,-1.0635,-1.0665,-1.0649,-1.0679,-1.0686,-1.0667,-1.0688,-1.0688,-1.0707,-1.071,-1.0716,-1.0729,-1.0731,-1.0733,-1.0734,-1.0735,-1.0735,0,0,0,0,0,0,0,-1.0583,-1.0587,-1.0628,-1.063,-1.0633,-1.064,-1.0645,-1.0655,-1.0684,-1.0669,-1.0672,-1.0676,-1.0708,-1.0715,-1.0717,-1.0731,-1.0733,-1.0734,-1.0735,-1.0736,-1.0741,-1.0741,0,0,0,0,0,0,-1.0578,-1.0585,-1.0627,-1.0629,-1.0611,-1.0641,-1.0646,-1.0655,-1.0684,-1.0689,-1.0676,-1.0677,-1.0713,-1.0716,-1.0719,-1.0716,-1.0735,-1.0736,-1.0736,-1.0742,-1.0741,-1.074,0,0,0,0,0,0,-1.0577,-1.0581,-1.0625,-1.0608,-1.0614,-1.0641,-1.0651,-1.0656,-1.0663,-1.0689,-1.0694,-1.0678,-1.0713,-1.0717,-1.0724,-1.0718,-1.0736,-1.0737,-1.0742,-1.0741,-1.0741,-1.0711,0,0,0,0,0,0,-1.0575,-1.0581,-1.0581,-1.0608,-1.0615,-1.0631,-1.065,-1.0656,-1.0665,-1.0668,-1.0692,-1.0696,-1.0714,-1.0722,-1.0726,-1.072,-1.0738,-1.0743,-1.0742,-1.0741,-1.0712,-1.0709,-1.0706,0,0,0,0,0,-1.0573,-1.0571,-1.0581,-1.0586,-1.0616,-1.063,-1.0634,-1.0655,-1.0664,-1.0664,-1.068,-1.0696,-1.0718,-1.0723,-1.0727,-1.0721,-1.0743,-1.0742,-1.0741,-1.0714,-1.0709,-1.0706,0,0,0,0,0,0,-1.0543,-1.0575,-1.0587,-1.0594,-1.0609,-1.0636,-1.0637,-1.0651,-1.0663,-1.0665,-1.069,-1.0695,-1.0699,-1.0711,-1.0716,-1.0718,-1.0733,-1.0732,-1.071,-1.0707,-1.0704,-1.07,-1.0739,0,0,0,0,0,-1.0538,-1.0547,-1.0575,-1.0578,-1.0585,-1.0609,-1.0616,-1.0631,-1.0648,-1.0654,-1.0671,-1.0686,-1.0696,-1.0702,-1.0713,-1.0714,-1.0719,-1.0712,-1.0709,-1.0706,-1.0705,-1.0703,-1.07,-1.0736,-1.0736,-1.0736,0,0,-1.0526,-1.0545,-1.055,-1.0573,-1.0586,-1.0594,-1.0615,-1.0623,-1.0629,-1.0655,-1.0663,-1.0675,-1.0693,-1.0696,-1.0699,-1.0706,-1.0696,-1.0704,-1.0702,-1.0702,-1.0702,-1.0698,-1.0695,-1.0735,-1.0736,-1.0736,0,0,-1.0509,-1.0525,-1.0529,-1.0541,-1.0561,-1.0577,-1.0577,-1.0602,-1.0611,-1.0619,-1.0638,-1.0644,-1.0662,-1.0673,-1.0681,-1.0665,-1.0678,-1.0668,-1.065,-1.0649,-1.0646,-1.0643,-1.0635,-1.0632,-1.0667,-1.0666,-1.0666,0,-1.0492,-1.0506,-1.0528,-1.0535,-1.0543,-1.0567,-1.057,-1.0581,-1.0603,-1.0608,-1.0616,-1.0637,-1.0651,-1.0656,-1.0651,-1.0658,-1.0657,-1.0665,-1.0645,-1.0642,-1.064,-1.0633,-1.063,-1.0665,-1.0665,-1.0665,-1.0665,0,-1.0483,-1.0492,-1.0492,-1.0512,-1.0521,-1.0525,-1.0547,-1.0552,-1.0565,-1.0579,-1.0585,-1.0602,-1.0616,-1.0618,-1.0632,-1.0624,-1.0628,-1.064,-1.0655,-1.0635,-1.0628,-1.0626,-1.0663,-1.0663,-1.0664,-1.0664,0,0,-1.045,-1.0481,-1.048,-1.0488,-1.0511,-1.0518,-1.0522,-1.0535,-1.0538,-1.0552,-1.0555,-1.0568,-1.0578,-1.0587,-1.0602,-1.06,-1.0583,-1.0612,-1.0613,-1.0605,-1.0573,-1.0562,-1.0559,-1.0593,-1.0592,-1.0592,-1.057,0,-1.0435,-1.0445,-1.0464,-1.0467,-1.0474,-1.0495,-1.0498,-1.0511,-1.0524,-1.053,-1.0544,-1.0552,-1.0566,-1.0571,-1.0571,-1.0585,-1.0577,-1.0587,-1.0593,-1.0593,-1.0587,-1.0556,-1.0545,-1.0524,-1.0568,-1.0568,-1.0568,0,-1.042,-1.0431,-1.0435,-1.0454,-1.0457,-1.046,-1.0472,-1.0479,-1.0493,-1.0502,-1.051,-1.0526,-1.0529,-1.0543,-1.0547,-1.0553,-1.0557,-1.0564,-1.0563,-1.0564,-1.0578,-1.0553,-1.0519,-1.0515,-1.0564,-1.0564,-1.0565,0,-1.0393,-1.0409,-1.0413,-1.0419,-1.0442,-1.0443,-1.0453,-1.0467,-1.0473,-1.0483,-1.0486,-1.0497,-1.0502,-1.0509,-1.0526,-1.0535,-1.0527,-1.0543,-1.0532,-1.0532,-1.0529,-1.0529,-1.0493,-1.0534,-1.0534,-1.0534,-1.0534,0,-1.0374,-1.0375,-1.0401,-1.0403,-1.0403,-1.0424,-1.0423,-1.0434,-1.0447,-1.045,-1.0469,-1.0471,-1.0494,-1.0498,-1.0511,-1.0511,-1.0514,-1.052,-1.0523,-1.0517,-1.0516,-1.0519,-1.052,-1.0533,-1.0533,-1.0534,-1.0534,0,-1.0344,-1.0362,-1.0367,-1.0387,-1.0392,-1.0391,-1.0408,-1.0409,-1.0422,-1.0425,-1.0427,-1.0447,-1.0453,-1.047,-1.0481,-1.0489,-1.0484,-1.0492,-1.0479,-1.0481,-1.0469,-1.0469,-1.0432,-1.0427,-1.0473,-1.0473,-1.0472,0,-1.0331,-1.0332,-1.0351,-1.0354,-1.0363,-1.0368,-1.0373,-1.0393,-1.0397,-1.0411,-1.041,-1.0418,-1.0424,-1.0432,-1.0447,-1.0454,-1.046,-1.0447,-1.0462,-1.0455,-1.0457,-1.0456,-1.0455,-1.0443,-1.0443,-1.0442,-1.0442,0,-1.0304,-1.0312,-1.0319,-1.0328,-1.0333,-1.0341,-1.0351,-1.0352,-1.0373,-1.0377,-1.0382,-1.0387,-1.0397,-1.0403,-1.0412,-1.042,-1.0433,-1.0437,-1.0434,-1.0428,-1.042,-1.0421,-1.0468,-1.0438,-1.0438,-1.0438,-1.0439,-1.0439,-1.0281,-1.0281,-1.0294,-1.03,-1.0309,-1.0316,-1.0317,-1.0329,-1.0334,-1.0343,-1.0354,-1.0357,-1.0368,-1.0382,-1.0389,-1.0391,-1.0398,-1.0396,-1.0395,-1.0393,-1.0389,-1.042,-1.0393,-1.0393,-1.0393,-1.0393,-1.0393,0,-1.0253,-1.0262,-1.0267,-1.0278,-1.0282,-1.0294,-1.0304,-1.0306,-1.0309,-1.0318,-1.0324,-1.0328,-1.0333,-1.0347,-1.0353,-1.0352,-1.0358,-1.0352,-1.0352,-1.0353,-1.0383,-1.0384,-1.0347,-1.0347,-1.0347,-1.0347,-1.0347,-1.0347,-1.0239,-1.0239,-1.0248,-1.0251,-1.026,-1.0263,-1.0267,-1.0273,-1.028,-1.0284,-1.0288,-1.0297,-1.0307,-1.0313,-1.0317,-1.0321,-1.0321,-1.0313,-1.0319,-1.0347,-1.0351,-1.0355,-1.0356,-1.0314,-1.0314,-1.0288,-1.0288,-1.0287]},{"header":{"parameterUnit":"m.s-1","parameterCategory":1,"la1":30.2991,"la2":30.254,"lo1":-89.0895,"lo2":-89.0444,"dy":0.0017,"dx":0.0017,"nx":28,"ny":28,"refTime":"2024-10-15T21:00:00:Z","depth":0,"parameterNumber":3,"parameterNumberName":"V-component_of_WINDS"},"data":[0,0,0,0,0,0,0,0,0,0,0,0,0,0,0,0,0,0,0,0,0,0,0,0,0,0,0,0,0,0,0,0,0,0,0,0,0,0,0,0,0,0,0,0,0,0,0,0,0,0,0,0,0,0,0,0,0,0,1.4458,1.4458,0,1.4454,1.4454,1.4454,1.446,1.446,1.4461,1.4461,1.4455,1.4455,1.4454,0,0,0,0,0,0,0,0,0,0,0,0,0,1.4471,1.4471,1.4458,1.4458,1.4458,1.4454,1.4454,1.4454,1.446,1.446,1.4461,1.4461,1.4455,1.4455,1.4454,0,0,0,0,0,0,0,0,0,0,0,0,0,1.4466,1.4471,1.4458,1.4461,1.4461,1.4454,1.4454,1.4454,1.446,1.446,1.4461,1.4461,1.4455,1.4455,1.4454,1.4444,0,0,1.4452,1.4452,0,0,0,0,0,0,0,0,1.4466,1.4465,1.4461,1.4461,1.4461,1.4458,1.4456,1.445,1.446,1.446,1.4461,1.4461,1.4456,1.4455,1.4453,1.4444,1.4443,1.4452,1.4452,1.4452,1.4452,0,0,0,0,0,0,0,1.4467,1.4466,1.4457,1.446,1.4461,1.4462,1.4462,1.4455,1.4456,1.446,1.4461,1.446,1.4456,1.4454,1.4453,1.4443,1.4452,1.4452,1.4452,1.4451,1.4425,1.4425,0,0,0,0,0,0,1.4467,1.4466,1.4457,1.4456,1.4464,1.4461,1.4461,1.4459,1.4456,1.4456,1.446,1.4461,1.4455,1.4454,1.4453,1.4441,1.4452,1.4451,1.4451,1.4426,1.4425,1.4425,0,0,0,0,0,0,1.4467,1.4466,1.4457,1.4461,1.446,1.4461,1.4458,1.4458,1.4457,1.4456,1.4456,1.4458,1.4455,1.4454,1.4446,1.4441,1.4451,1.4451,1.4426,1.4425,1.4425,1.4417,0,0,0,0,0,0,1.4467,1.4466,1.4462,1.4461,1.446,1.445,1.4458,1.4458,1.4456,1.4456,1.4454,1.4454,1.4455,1.4447,1.4446,1.4441,1.445,1.4426,1.4426,1.4425,1.4418,1.4416,1.4415,0,0,0,0,0,1.4468,1.446,1.4462,1.4461,1.4456,1.445,1.4449,1.4451,1.4455,1.4452,1.4451,1.4454,1.4442,1.4446,1.4445,1.4439,1.4427,1.4426,1.4425,1.4419,1.4417,1.4415,0,0,0,0,0,0,1.446,1.446,1.4462,1.4454,1.4452,1.4451,1.4447,1.4449,1.4446,1.4447,1.4449,1.4448,1.444,1.4439,1.4444,1.4429,1.4435,1.4434,1.443,1.4429,1.4427,1.4428,1.445,0,0,0,0,0,1.4457,1.4453,1.4453,1.4446,1.4445,1.4446,1.4444,1.4445,1.4443,1.4442,1.4441,1.4439,1.4435,1.4432,1.4428,1.4418,1.4417,1.4413,1.4412,1.4411,1.441,1.4405,1.4403,1.4422,1.4422,1.4422,0,0,1.4452,1.4451,1.4448,1.4444,1.4443,1.4439,1.4445,1.444,1.4437,1.4441,1.4434,1.4434,1.4431,1.4422,1.4418,1.4421,1.4404,1.441,1.4409,1.4408,1.4404,1.4402,1.44,1.4421,1.4422,1.4422,0,0,1.4439,1.4438,1.4432,1.4431,1.4429,1.443,1.4429,1.4427,1.4427,1.442,1.4424,1.442,1.4412,1.441,1.4408,1.4395,1.4398,1.4394,1.4387,1.4382,1.438,1.4379,1.4374,1.4373,1.4393,1.4393,1.4393,0,1.4432,1.4426,1.4429,1.4424,1.4422,1.4426,1.442,1.4418,1.4415,1.4414,1.4417,1.4408,1.4406,1.4397,1.4394,1.4392,1.4391,1.4394,1.438,1.4379,1.4378,1.4373,1.4372,1.4392,1.4392,1.4392,1.4392,0,1.4418,1.4413,1.4409,1.4406,1.4404,1.4398,1.4399,1.4396,1.4398,1.4398,1.4391,1.439,1.4386,1.4384,1.4385,1.4375,1.4377,1.438,1.4386,1.4375,1.4371,1.437,1.4392,1.4392,1.4392,1.4392,0,0,1.44,1.4399,1.4397,1.4396,1.4395,1.4391,1.4386,1.4382,1.438,1.4377,1.4373,1.4366,1.4369,1.4367,1.4369,1.4364,1.4354,1.4368,1.4368,1.4366,1.4343,1.434,1.4338,1.4356,1.4356,1.4355,1.4343,0,1.4388,1.4378,1.4381,1.4371,1.4367,1.4372,1.4367,1.4365,1.4366,1.4362,1.4362,1.4357,1.4362,1.4361,1.4357,1.4356,1.435,1.4357,1.4351,1.4351,1.4352,1.4336,1.4334,1.4322,1.4341,1.4341,1.4341,0,1.4372,1.437,1.436,1.4359,1.4358,1.4353,1.435,1.4347,1.4345,1.4346,1.4343,1.4346,1.434,1.4346,1.4338,1.4343,1.434,1.434,1.4339,1.4339,1.4345,1.4335,1.4318,1.4317,1.4339,1.4339,1.4339,0,1.436,1.4354,1.4348,1.4347,1.4346,1.4343,1.4342,1.4341,1.4339,1.4336,1.4334,1.4331,1.4329,1.4326,1.4327,1.4331,1.4319,1.4325,1.4319,1.4319,1.4316,1.4316,1.4298,1.4314,1.4314,1.4314,1.4314,0,1.4346,1.434,1.4343,1.4339,1.4332,1.4335,1.4328,1.4328,1.4327,1.4323,1.4326,1.4322,1.4324,1.432,1.4321,1.4314,1.4313,1.4313,1.4313,1.4313,1.4313,1.4311,1.4312,1.4314,1.4314,1.4314,1.4314,0,1.4331,1.4333,1.4326,1.4326,1.4326,1.4321,1.4321,1.4317,1.4318,1.4313,1.4312,1.4312,1.4308,1.4309,1.4304,1.4304,1.4296,1.4297,1.4297,1.4297,1.4291,1.4292,1.4272,1.4269,1.4287,1.4287,1.4287,0,1.4322,1.4318,1.4317,1.4315,1.4315,1.4311,1.4309,1.4311,1.4309,1.4306,1.4303,1.4299,1.4296,1.4289,1.4288,1.4285,1.4286,1.4279,1.4285,1.4285,1.4286,1.4286,1.4286,1.4278,1.4278,1.4277,1.4277,0,1.4306,1.4307,1.4304,1.4302,1.4299,1.4297,1.4295,1.4293,1.4295,1.4292,1.4288,1.4286,1.4281,1.4277,1.4274,1.4273,1.4275,1.4275,1.4274,1.4273,1.4273,1.4273,1.4293,1.4276,1.4276,1.4276,1.4276,1.4276,1.4294,1.429,1.429,1.4286,1.4285,1.4284,1.428,1.428,1.4277,1.4274,1.4275,1.427,1.4269,1.4265,1.4263,1.4259,1.4262,1.426,1.4259,1.4258,1.4258,1.4274,1.4259,1.4259,1.4259,1.4259,1.4259,0,1.4278,1.4278,1.4275,1.4272,1.427,1.4273,1.4271,1.4269,1.4265,1.4263,1.426,1.4255,1.4252,1.4251,1.4248,1.4244,1.4246,1.4243,1.4244,1.4243,1.4256,1.4257,1.4243,1.4243,1.4243,1.4243,1.4243,1.4243,1.4269,1.4263,1.4264,1.4258,1.4258,1.4254,1.4252,1.4251,1.425,1.4244,1.4241,1.4241,1.424,1.4237,1.4233,1.4233,1.4232,1.4229,1.4229,1.4241,1.4243,1.4244,1.4246,1.4229,1.4229,1.4218,1.4217,1.4217]}]]